Showing default

ORBCOMM FM 108, 41187

Orbit data source: Space-Track

ORBCOMM FM 108, 41187 is a payload satellite owned by Orbcomm (US) in LEO that was launched on Tue, 22 Dec 2015 UTC via an FALCON 9 launch vehicle from the Air Force Eastern Test Range (AFETR). Payload-class satellites include a variety of spacecraft equipped with specific instruments for various scientific and technological missions. These include communications satellites like Starlink; space stations such as the ISS; scientific satellites like the Hubble; Earth observation satellites from companies like Planet Labs, Umbra, and HawkEye 360; GPS; miniature CubeSats for education and research; and military/defense satellites.

Loading next visibility...
Identifier
41187, 2015-081J
Orbit
LEO
Country
Flag of USUS / ORB
Related business
Manufacturer
SNC Louisville
Mission
Operational Commercial Communications
Bus & Motor
SN-100A, Unknown motor
Mass
172 kg wet, 158 kg dry
Launch date (UTC)
2015-12-22 (10 years ago)
Launch vehicle
FALCON 9
Launch site
Air Force Eastern Test Range (AFETR)
Object type
Payload
Rocket body
Debris
Shape & HBR
Box + 1 Pan + 1 Ant, 5.3 m
Radar Cross Section
2.222 m², Large (>1 m²)

Expand to show TLE details & history
Last TLE update: 11 hours ago

TLE from 11 hours ago
0 ORBCOMM FM 108
1 41187U 15081J   26150.34367145  .00000968  00000-0  24114-3 0  9991
2 41187  47.0050 266.5596 0002027 136.6738 223.4307 14.58845088557473
Epoch: 2026-05-30T08:14Z
TLE epoch observation values (Epoch: 2026-05-30T08:14:53.213Z)
Latitude
-0.00004°
Longitude
-105.02322°
Altitude
698.163 km
Speed
7.508 km/s
True Right ascension
17h 46m 14s
True Declination
0° 00' 00"
Sunlit
Object was in full shadow at epoch
Visualization orbit readout
Latitude
Unknown
Longitude
Unknown
Altitude
Unknown
Speed
Unknown
Apparent Right ascension
Unknown
Apparent Declination
Unknown
Sunlit
N/A
Visualization observer readout
Local Sidereal Time
04:53:57
Azimuth
Unknown
Elevation
Unknown
Doppler factor
Unknown
Orbital elements
Apogee altitude
699.574 km
Perigee altitude
696.705 km
Semi-major axis
7,076.277 km
Eccentricity
0.0002
Inclination
47.005°
RAAN
266.5596°
Arg. of periapsis
136.6738°
True anomaly
223.41473°
Mean anomaly
223.4307°
Eccentric anomaly
223.42272°
Mean motion
3.64616 °/min
Orbital period
98.73 mins
BSTAR
0.00024114
Loading maneuver chart data...
Computing Atmospheric mass density...
Loading historical data...
Loading historical data...
Loading historical data...
Loading historical data...
Loading historical data...
Loading historical data...
Loading historical data...

Documentation

Showing up to 5 results
|